THOR ABLESTAR DEB, 649

Orbit data source: Space-Track

THOR ABLESTAR DEB, 649 is space debris in LEO originally from a launch on Thu, 29 Jun 1961 UTC launched from the Air Force Eastern Test Range (AFETR). Debris objects in space refer to the collection of defunct objects orbiting the Earth. Examples of debris include non-operational satellites, rocket bodies, and fragments generated from explosions, collisions, or faulty payload assembly.

Loading next visibility...
Identifier
649, 1961-015HA
Orbit
LEO
Last TLE update
23 hours ago
Origin
Manufacturer
Unknown
Mission
Spacecraft
Bus & Motor
Unknown
Mass
Unknown
Launch date (UTC)
1961-06-29 (64 years ago)
Launch vehicle
Unknown
Launch site
Air Force Eastern Test Range (AFETR)
Object type
Payload
Rocket body
Debris
Shape & HBR
Unknown
Radar Cross Section
Small (<0.1 m²)

Expand to show TLE details & history

TLE from 23 hours ago
0 THOR ABLESTAR DEB
1 00649U 61015HA  25191.16168354 -.00000007  00000-0  14837-3 0  9998
2 00649  66.2655 139.1309 0565181 207.6020 261.9284 12.65200007949366
Epoch: 2025-07-10T03:52Z
TLE epoch observation values (Epoch: 2025-07-10T03:52:49.457Z)
Latitude
63.13789°
Longitude
-87.15986°
Altitude
1,497.323 km
Speed
7.082 km/s
True Right ascension
17h 17m 30s
True Declination
63° 00' 43"
Sunlit
Object was in daylight at epoch
Visualization orbit readout
Latitude
32.51836°
Longitude
-45.52723°
Altitude
1,186.071 km
Speed
7.365 km/s
Apparent Right ascension
22h 56m 26s
Apparent Declination
0° 12' 05"
Sunlit
Object is in full shadow
Visualization observer readout
Local Sidereal Time
15:08:07
Azimuth
71.993° E
Elevation
-20.574°
Doppler factor
1
Orbital elements
Apogee altitude
1,839.709 km
Perigee altitude
960.487 km
Semi-major axis
7,778.235 km
Eccentricity
0.05652
Inclination
66.2655°
RAAN
139.1309°
Arg. of periapsis
207.602°
True anomaly
Unknown
Mean anomaly
261.9284°
Eccentric anomaly
Unknown
Mean motion
3.16389 °/min
Orbital period
113.78 mins
BSTAR
0.00014837
Loading maneuver chart data...
Loading SW <> Apogee altitude chart data...

THOR ABLESTAR DEB Visibility forecast

Observer location: undefined°, undefined°

Span
Click to sort rows by Start time (UTC) header in descending order
Start Az.
Max El. time (UTC)
Max El. Az.
Max El.
End time (UTC)
End Az.
9 mins2025-07-11 04:30:29.246Z351.99° N2025-07-11 04:34:29.246Z20.111° NNE15.779°2025-07-11 04:39:29.246Z58.625° ENE
13 mins2025-07-11 06:28:29.246Z341.799° N2025-07-11 06:34:29.246Z41.435° NE37.215°2025-07-11 06:41:29.246Z124.547° SE
11 mins2025-07-11 08:26:29.246Z308.214° NW2025-07-11 08:31:29.246Z259.311° W29.121°2025-07-11 08:37:29.246Z194.492° SSW
19 mins2025-07-11 21:06:29.246Z180.02° SSW2025-07-11 21:15:29.246Z112.685° SE38.597°2025-07-11 21:25:29.246Z38.409° NE
18 mins2025-07-11 23:04:29.246Z239.321° WSW2025-07-11 23:13:29.246Z310.776° NW37.335°2025-07-11 23:22:29.246Z21.391° NNE
11 mins2025-07-12 01:08:29.246Z300.837° NW2025-07-12 01:13:29.246Z332.275° NNW17.345°2025-07-12 01:19:29.246Z12.012° NNE
|